Portada
METAR-TAF:

METAR-TAF

Aeroports :

Minocqua-Woodruff, Wisconsin, Estats Units d'Amèrica

latitud: 45-56N, longitud: 089-44W, altitud: 496 m

Observació

L'informe es va fer fa 19 minuts, a les 19:55 UTC
Vent 7 kt del Oest/Sud-Oest
Temperatura -1°C
Humitat 69%
Pressió 1014 hPa
Visibilitat: 16.1 km
Cel clar

METAR: KARV 101955Z AUTO 24007KT 10SM CLR M01/M06 A2995 RMK AO2 T10151059

Hora: 14:14 (20:14 UTC)


TAF: manca

Observacions i pronòstics meteorològics de més de 4000 aeroports (METAR i TAF).

Les estacions disponibles són els punts grocs i vermells al mapa.

Posi el ratolí al punt desitjat per veure el nom de l'estació.

Feu clic per veure les observacions i els pronòstics meteorològics.

Per canviar el mapa: feu clic els botons verds amb una creu de color negre per apropar; al botó verd amb un guió per allunyar la imatge; o en les fletxes verdes per a mapes adjacents.


METAR-TAF: